Weather Roundup
Issued by NWS

Home | Current Version | Previous Version | Graphics & Text | Print | Product List | Glossary Off
Versions: 1 2 3 4 5 6 7 8 9 10 11 12 13 14 15 16 17 18 19 20 21 22 23 24 25 26 27 28 29 30 31 32 33 34 35 36 37 38 39 40 41 42 43 44 45 46 47 48 49 50

141
NZUS93 KARX 022210
HRRWXR

CURRENT HOURLY OBSERVATIONS ACROSS
MUCH OF THE UPPER MISSISSIPPI VALLEY
NATIONAL WEATHER SERVICE LA CROSSE WI
400 PM CST FRI DEC 02 2016


...SOUTHEAST MINNESOTA...


CITY           SKY/WX    TMP DP  RH WIND       PRES   REMARKS
ROCHESTER      CLOUDY    30  22  72 W9        30.26R WCI  22
ROCHESTER/MAYO CLOUDY    31  22  70 W10G17    30.26R WCI  22
WINONA         CLOUDY    34  25  69 NW8       30.27R WCI  27
AUSTIN         CLOUDY    30  23  74 W8        30.27R WCI  23
ALBERT LEA     CLOUDY    34  27  75 W8        30.28R WCI  27
DODGE CENTER   CLOUDY    28  21  74 NW8       30.26R WCI  20
PRESTON        CLOUDY    29  22  73 W10       30.27R WCI  20
OWATONNA       CLOUDY    30  23  74 W10       30.28R WCI  21
FARIBAULT      CLOUDY    30  25  80 SW7       30.28R WCI  23
$$

...ELSEWHERE IN MINNESOTA...


CITY           SKY/WX    TMP DP  RH WIND       PRES   REMARKS
MINNEAPOLIS    CLOUDY    32  23  69 NW6       30.27R WCI  26
INTNL FALLS    CLOUDY    24  20  84 W7        30.22R WCI  16
DULUTH         CLOUDY    29  23  78 NW7       30.19R WCI  22
RED WING       CLOUDY    34  23  64 NW6       30.26R WCI  29
REDWOOD FALLS  CLOUDY    29  20  69 NW9       30.29R WCI  20
MANKATO        CLOUDY    29  23  78 NW10      30.29R WCI  20
WORTHINGTON    CLOUDY    31  24  75 W8        30.28R WCI  23
FAIRMONT       CLOUDY    29  23  78 NW9       30.30R WCI  20
$$

...SOUTHWEST WISCONSIN...


CITY           SKY/WX    TMP DP  RH WIND       PRES   REMARKS
LA CROSSE      CLOUDY    35  23  61 W6        30.26R WCI  30
PRAIRIE DU CHI CLOUDY    33  22  65 NW9       30.28R WCI  25
BOSCOBEL       CLOUDY    35  22  58 W7        30.28R WCI  29
LONE ROCK      CLOUDY    33  22  63 NW7       30.27R WCI  27
PLATTEVILLE    CLOUDY    33  26  76 W9        30.26R WCI  25
FORT MC COY    CLOUDY    32  24  71 W8        30.26R WCI  25
CAMP DOUGLAS   CLOUDY    31  23  71 NW7       30.23R WCI  24
MAUSTON-NEW LI CLOUDY    32  23  71 W6        30.23S WCI  26
VIROQUA        CLOUDY    31  24  78 NW6       30.23R WCI  25
WIS DELLS      CLOUDY    32  23  69 N6        30.23R WCI  26
$$

...ELSEWHERE IN WISCONSIN...


CITY           SKY/WX    TMP DP  RH WIND       PRES   REMARKS
MILWAUKEE      CLOUDY    35  22  58 W9        30.22R WCI  28
MADISON        CLOUDY    32  22  66 N6        30.24R WCI  26
GREEN BAY      CLOUDY    36  29  75 W9        30.20R WCI  29
EAU CLAIRE     CLOUDY    32  24  72 NW3       30.23R
BLACK RVR FLS  CLOUDY    33  22  63 W3        30.24R
MEDFORD        CLOUDY    30  24  78 NW5       30.18S WCI  25
WAUSAU         CLOUDY    32  24  72 NW6       30.18R WCI  26
WIS RAPIDS     CLOUDY    32  23  69 NW6       30.22S WCI  26
MARSHFIELD     CLOUDY    30  21  69 N6        30.19S WCI  24
RICE LAKE      CLOUDY    31  24  75 W5        30.24R WCI  26
$$

...NORTHEAST IOWA...


CITY           SKY/WX    TMP DP  RH WIND       PRES   REMARKS
WATERLOO       CLOUDY    33  24  69 NW10      30.28S WCI  25
DUBUQUE        CLOUDY    33  24  69 W12       30.27R WCI  24
DECORAH        CLOUDY    30  23  74 NW10      30.26R WCI  21
MASON CITY     CLOUDY    31  23  72 NW7       30.31R WCI  24
CHARLES CITY   CLOUDY    32  25  74 W7        30.30R WCI  26
OELWEIN        CLOUDY    32  27  80 W14       30.29R WCI  22
$$

...ELSEWHERE IN IOWA...


CITY           SKY/WX    TMP DP  RH WIND       PRES   REMARKS
DES MOINES     CLOUDY    40  31  70 NW7       30.29R
IOWA CITY      CLOUDY    38  27  64 NW9G18    30.29F WCI  31
FORT DODGE     CLOUDY    36  27  69 NW5       30.29F WCI  32
MARSHALLTOWN   CLOUDY    35  29  78 N10       30.27S WCI  27
CEDAR RAPIDS   CLOUDY    35  28  75 N14       30.26F WCI  26
$$

...NORTHERN ILLINOIS...


CITY           SKY/WX    TMP DP  RH WIND       PRES   REMARKS
CHICAGO-OHARE  CLOUDY    37  27  67 NW8       30.23R WCI  31
CHICAGO-MIDWAY CLOUDY    40  27  59 W9        30.23R WCI  34
MOLINE         CLOUDY    38  27  64 NW10      30.27R WCI  31
ROCKFORD       CLOUDY    35  25  66 NW8       30.28R WCI  29
PEORIA         CLOUDY    41  30  65 NW7       30.27R
$$

NOTE: "FAIR" INDICATES FEW OR NO CLOUDS BELOW 12,000 FEET WITH NO
SIGNIFICANT WEATHER AND/OR OBSTRUCTIONS TO VISIBILITY. WIND
SPEEDS ARE IN MILES-PER-HOUR.




USA.gov is the U.S. government's official web portal to all federal, state and local government web resources and services.